Tracking 22993 objects as of 11-May-2021
HD Live streaming from Space Station
objects crossing your sky now

ARIANE 2 DEB

Track ARIANE 2 DEB now!
10-day predictions


NORAD ID: 33584
Int'l Code: 1989-027E
Perigee: 413.3 km
Apogee: 21,997.1 km
Inclination: 6.0 °
Period: 386.5 minutes
Semi major axis: 17576 km
RCS: 0.3666 m2 (medium)
Launch date: April 2, 1989
Source: France (FR)
Launch site: FRENCH GUIANA (FRGUI)

Note: This is SATELLITE DEBRIS
aabbcc
Your satellite tracking list
Your tracking list is empty




NASA's NSSDC Master Catalog

Two Line Element Set (TLE):
1 33584U 89027E   21130.31921149  .00000373  00000-0  56771-3 0  9998
2 33584   6.0259   6.9205 6140051  97.1246 331.6692  3.72575302 96363
Source of the keplerian elements: AFSPC